This is the latest recevied weather packets stored in our database for station/object VK4TOM-13. If no packets are shown the sender has not sent any weather packets the latest 10 day(s).
| Time | Temp. | Humidity | Pressure | Rain* | Wind** | Luminosity | Snow |
|---|---|---|---|---|---|---|---|
| 1788424096 | 24.44° C | 49% | 1019 hPa | 0 mm | - | - | - |
| 1788423496 | 25° C | 49% | 1019 hPa | 0 mm | - | - | - |
| 1788422894 | 25.56° C | 45% | 1018.9 hPa | 0 mm | - | - | - |
| 1788422293 | 25.56° C | 43% | 1018.7 hPa | 0 mm | - | - | - |
| 1788421692 | 26.11° C | 41% | 1018.6 hPa | 0 mm | - | - | - |
| 1788421091 | 27.22° C | 39% | 1018.4 hPa | 0 mm | - | - | - |
| 1788420490 | 27.78° C | 37% | 1018.4 hPa | 0 mm | - | - | - |
| 1788419913 | 27.78° C | 36% | 1018.3 hPa | 0 mm | - | - | - |
| 1788419288 | 28.33° C | 36% | 1018.4 hPa | 0 mm | - | - | - |
| 1788418687 | 28.33° C | 36% | 1018.3 hPa | 0 mm | - | - | - |
| 1788418086 | 28.33° C | 35% | 1018.4 hPa | 0 mm | - | - | - |
| 1788417894 | 28.89° C | 34% | 1018.2 hPa | 0 mm | - | - | - |
| 1788417300 | 29.44° C | 33% | 1018.2 hPa | 0 mm | - | - | - |
| 1788416698 | 30° C | 31% | 1018.1 hPa | 0 mm | - | - | - |
| 1788416097 | 31.11° C | 30% | 1018.2 hPa | 0 mm | - | - | - |
| 1788415496 | 31.67° C | 28% | 1018.1 hPa | 0 mm | - | - | - |
| 1788414896 | 32.78° C | 27% | 1018 hPa | 0 mm | - | - | - |
| 1788414454 | 33.33° C | 28% | 1018.1 hPa | 0 mm | - | - | - |
| 1788413853 | 33.33° C | 28% | 1018 hPa | 0 mm | - | - | - |
| 1788413252 | 33.89° C | 28% | 1018 hPa | 0 mm | - | - | - |
| 1788412651 | 33.89° C | 29% | 1018.1 hPa | 0 mm | - | - | - |
| 1788412050 | 33.33° C | 30% | 1018.2 hPa | 0 mm | - | - | - |
| 1788411449 | 33.33° C | 29% | 1018.2 hPa | 0 mm | - | - | - |
| 1788410848 | 33.89° C | 28% | 1018.4 hPa | 0 mm | - | - | - |
| 1788410247 | 34.44° C | 28% | 1018.5 hPa | 0 mm | - | - | - |
* Rain since midnight (hover to see other rain measurements)
** Current wind speed in m/s (hover to see current wind gust speed)